Location: Ku?niki
(51.4449°N, 17.8974°E)
Time: 07:13:54
(UTC+00:00)

DX 1 - Pass Details

Date: 01 July 2022
Orbit: 617 x 629 km, 98.4° (Epoch: 07 August)

Event Time Altitude Azimuth Distance (km) Brightness Sun altitude
Rises 20:57:38 0° 9° (N) 2,934 ? -11.3°
Reaches altitude 10° 20:59:57 10° 1° (N) 2,021 ? -11.5°
Maximum altitude 21:03:59 37° 295° (WNW) 985 ? -11.8°
Drops below altitude 10° 21:08:00 10° 228° (SW) 2,002 ? -12.0°
Sets 21:10:18 0° 220° (SW) 2,903 ? -12.2°
